Time,TemperatureF,DewpointF,PressureIn,WindDirection,WindDirectionDegrees,WindSpeedMPH,WindSpeedGustMPH,Humidity,HourlyPrecipIn,Conditions,Clouds,dailyrainin,SoftwareType,DateUTC
2013-05-23 00:01:00,40.6,35.0,29.75,WSW,254,0.0,4.0,80,0.00,,,0.00,weatherlink.com 1.10,2013-05-23 06:01:00,
2013-05-23 00:15:00,40.3,35.0,29.75,WSW,252,0.0,5.0,80,0.00,,,0.00,weatherlink.com 1.10,2013-05-23 06:15:00,
2013-05-23 00:30:00,40.3,35.0,29.76,WSW,252,0.0,0.0,80,0.00,,,0.00,weatherlink.com 1.10,2013-05-23 06:30:00,
2013-05-23 00:45:00,39.6,35.0,29.75,WSW,252,0.0,4.0,82,0.00,,,0.00,weatherlink.com 1.10,2013-05-23 06:45:00,
2013-05-23 01:00:00,40.2,35.0,29.75,WSW,252,0.0,0.0,81,0.00,,,0.00,weatherlink.com 1.10,2013-05-23 07:00:00,
2013-05-23 01:15:00,39.5,34.0,29.76,WSW,252,0.0,0.0,81,0.00,,,0.00,weatherlink.com 1.10,2013-05-23 07:15:00,
2013-05-23 01:31:00,38.7,34.0,29.76,East,101,0.0,5.0,83,0.00,,,0.00,weatherlink.com 1.10,2013-05-23 07:31:00,
2013-05-23 01:45:00,38.2,34.0,29.76,ESE,115,0.0,4.0,84,0.00,,,0.00,weatherlink.com 1.10,2013-05-23 07:45:00,
2013-05-23 02:01:00,38.1,34.0,29.76,SSE,153,0.0,1.0,84,0.00,,,0.00,weatherlink.com 1.10,2013-05-23 08:01:00,
2013-05-23 02:16:00,38.5,33.0,29.76,SE,140,0.0,0.0,82,0.00,,,0.00,weatherlink.com 1.10,2013-05-23 08:16:00,
2013-05-23 02:33:00,38.9,34.0,29.76,SE,138,0.0,3.0,82,0.00,,,0.00,weatherlink.com 1.10,2013-05-23 08:33:00,
2013-05-23 02:46:00,39.8,34.0,29.76,East,101,0.0,8.0,81,0.00,,,0.00,weatherlink.com 1.10,2013-05-23 08:46:00,
2013-05-23 03:01:00,40.6,35.0,29.76,ESE,110,0.0,9.0,80,0.00,,,0.00,weatherlink.com 1.10,2013-05-23 09:01:00,
2013-05-23 03:16:00,41.1,35.0,29.76,East,98,0.0,8.0,79,0.00,,,0.00,weatherlink.com 1.10,2013-05-23 09:16:00,
2013-05-23 03:31:00,41.2,36.0,29.76,East,97,2.0,7.0,80,0.00,,,0.00,weatherlink.com 1.10,2013-05-23 09:31:00,
2013-05-23 03:47:00,41.1,36.0,29.76,ESE,115,3.0,3.0,81,0.00,,,0.00,weatherlink.com 1.10,2013-05-23 09:47:00,
2013-05-23 04:02:00,40.9,36.0,29.76,East,98,0.0,7.0,82,0.00,,,0.00,weatherlink.com 1.10,2013-05-23 10:02:00,
2013-05-23 04:16:00,40.9,36.0,29.76,ESE,111,0.0,5.0,83,0.00,,,0.00,weatherlink.com 1.10,2013-05-23 10:16:00,
2013-05-23 04:31:00,40.8,36.0,29.75,ESE,109,5.0,7.0,83,0.00,,,0.00,weatherlink.com 1.10,2013-05-23 10:31:00,
2013-05-23 04:46:00,40.6,36.0,29.76,East,100,6.0,11.0,84,0.00,,,0.00,weatherlink.com 1.10,2013-05-23 10:46:00,
2013-05-23 05:01:00,40.4,36.0,29.76,ESE,109,0.0,7.0,84,0.00,,,0.00,weatherlink.com 1.10,2013-05-23 11:01:00,
2013-05-23 05:16:00,40.3,36.0,29.75,ESE,108,0.0,5.0,84,0.00,,,0.00,weatherlink.com 1.10,2013-05-23 11:16:00,
2013-05-23 05:31:00,40.1,36.0,29.76,ESE,109,3.0,7.0,85,0.00,,,0.00,weatherlink.com 1.10,2013-05-23 11:31:00,
2013-05-23 05:46:00,39.6,36.0,29.75,SE,126,0.0,9.0,85,0.00,,,0.00,weatherlink.com 1.10,2013-05-23 11:46:00,
2013-05-23 06:01:00,39.1,35.0,29.75,ESE,106,0.0,7.0,86,0.00,,,0.00,weatherlink.com 1.10,2013-05-23 12:01:00,
2013-05-23 06:16:00,39.0,36.0,29.75,ESE,120,0.0,5.0,87,0.00,,,0.00,weatherlink.com 1.10,2013-05-23 12:16:00,
2013-05-23 06:31:00,39.5,36.0,29.75,ESE,123,1.0,8.0,86,0.00,,,0.00,weatherlink.com 1.10,2013-05-23 12:31:00,
2013-05-23 06:46:00,39.9,36.0,29.75,ESE,113,0.0,5.0,85,0.00,,,0.00,weatherlink.com 1.10,2013-05-23 12:46:00,
2013-05-23 07:01:00,40.6,37.0,29.75,SE,134,0.0,4.0,85,0.00,,,0.00,weatherlink.com 1.10,2013-05-23 13:01:00,
2013-05-23 07:17:00,41.8,36.0,29.75,East,96,0.0,10.0,81,0.00,,,0.00,weatherlink.com 1.10,2013-05-23 13:17:00,
2013-05-23 07:32:00,42.9,37.0,29.75,ESE,102,4.0,10.0,79,0.00,,,0.00,weatherlink.com 1.10,2013-05-23 13:32:00,
2013-05-23 07:47:00,44.5,37.0,29.75,ESE,102,1.0,9.0,74,0.00,,,0.00,weatherlink.com 1.10,2013-05-23 13:47:00,
2013-05-23 08:02:00,45.8,36.0,29.75,East,92,0.0,10.0,69,0.00,,,0.00,weatherlink.com 1.10,2013-05-23 14:02:00,
2013-05-23 08:17:00,45.8,36.0,29.75,East,95,0.0,14.0,69,0.00,,,0.00,weatherlink.com 1.10,2013-05-23 14:17:00,
2013-05-23 08:32:00,45.7,36.0,29.75,SE,143,4.0,13.0,68,0.00,,,0.00,weatherlink.com 1.10,2013-05-23 14:32:00,
2013-05-23 08:47:00,46.2,36.0,29.75,ESE,112,0.0,10.0,68,0.00,,,0.00,weatherlink.com 1.10,2013-05-23 14:47:00,
2013-05-23 09:02:00,48.1,35.0,29.75,ENE,74,0.0,6.0,62,0.00,,,0.00,weatherlink.com 1.10,2013-05-23 15:02:00,
2013-05-23 09:17:00,49.1,36.0,29.74,SSE,161,0.0,4.0,60,0.00,,,0.00,weatherlink.com 1.10,2013-05-23 15:17:00,
2013-05-23 09:32:00,49.2,36.0,29.74,ENE,65,0.0,8.0,60,0.00,,,0.00,weatherlink.com 1.10,2013-05-23 15:32:00,
2013-05-23 09:47:00,50.0,36.0,29.73,East,86,0.0,9.0,58,0.00,,,0.00,weatherlink.com 1.10,2013-05-23 15:47:00,
2013-05-23 10:05:00,51.5,36.0,29.73,South,175,0.0,4.0,55,0.00,,,0.00,weatherlink.com 1.10,2013-05-23 16:05:00,
2013-05-23 10:17:00,52.8,36.0,29.72,NNE,17,2.0,5.0,53,0.00,,,0.00,weatherlink.com 1.10,2013-05-23 16:17:00,
2013-05-23 10:32:00,54.0,36.0,29.73,ESE,111,0.0,5.0,51,0.00,,,0.00,weatherlink.com 1.10,2013-05-23 16:32:00,
2013-05-23 10:48:00,56.6,37.0,29.72,SE,142,0.0,5.0,48,0.00,,,0.00,weatherlink.com 1.10,2013-05-23 16:48:00,
2013-05-23 11:03:00,57.8,37.0,29.71,South,184,0.0,7.0,46,0.00,,,0.00,weatherlink.com 1.10,2013-05-23 17:03:00,
2013-05-23 11:17:00,57.9,36.0,29.71,NNW,342,0.0,3.0,44,0.00,,,0.00,weatherlink.com 1.10,2013-05-23 17:17:00,
2013-05-23 11:33:00,58.4,36.0,29.70,East,96,0.0,5.0,44,0.00,,,0.00,weatherlink.com 1.10,2013-05-23 17:33:00,
2013-05-23 11:48:00,61.8,35.0,29.70,NE,38,3.0,7.0,37,0.00,,,0.00,weatherlink.com 1.10,2013-05-23 17:48:00,
2013-05-23 12:04:00,63.6,29.0,29.70,SSW,202,7.0,12.0,27,0.00,,,0.00,weatherlink.com 1.10,2013-05-23 18:04:00,
2013-05-23 12:18:00,63.7,30.0,29.70,ENE,61,4.0,15.0,28,0.00,,,0.00,weatherlink.com 1.10,2013-05-23 18:18:00,
2013-05-23 12:33:00,64.3,26.0,29.69,East,97,7.0,18.0,23,0.00,,,0.00,weatherlink.com 1.10,2013-05-23 18:33:00,
2013-05-23 12:48:00,65.4,27.0,29.68,ESE,120,4.0,11.0,23,0.00,,,0.00,weatherlink.com 1.10,2013-05-23 18:48:00,
2013-05-23 13:04:00,66.6,26.0,29.67,WSW,240,0.0,15.0,22,0.00,,,0.00,weatherlink.com 1.10,2013-05-23 19:04:00,
2013-05-23 13:18:00,67.2,27.0,29.68,SE,124,4.0,16.0,22,0.00,,,0.00,weatherlink.com 1.10,2013-05-23 19:18:00,
2013-05-23 13:33:00,66.8,25.0,29.67,SE,142,7.0,21.0,21,0.00,,,0.00,weatherlink.com 1.10,2013-05-23 19:33:00,
2013-05-23 13:48:00,67.2,27.0,29.66,SW,215,2.0,18.0,22,0.00,,,0.00,weatherlink.com 1.10,2013-05-23 19:48:00,
2013-05-23 14:04:00,68.5,25.0,29.66,SW,231,4.0,19.0,19,0.00,,,0.00,weatherlink.com 1.10,2013-05-23 20:04:00,
2013-05-23 14:18:00,68.3,26.0,29.66,SE,132,14.0,23.0,20,0.00,,,0.00,weatherlink.com 1.10,2013-05-23 20:18:00,
2013-05-23 14:33:00,68.3,27.0,29.66,WSW,244,3.0,19.0,21,0.00,,,0.00,weatherlink.com 1.10,2013-05-23 20:33:00,
2013-05-23 14:48:00,67.6,24.0,29.65,SE,145,4.0,16.0,19,0.00,,,0.00,weatherlink.com 1.10,2013-05-23 20:48:00,
2013-05-23 15:05:00,66.3,24.0,29.65,SSE,149,4.0,17.0,20,0.00,,,0.00,weatherlink.com 1.10,2013-05-23 21:05:00,
2013-05-23 15:18:00,65.8,25.0,29.64,South,171,8.0,19.0,21,0.00,,,0.00,weatherlink.com 1.10,2013-05-23 21:18:00,
2013-05-23 15:33:00,66.6,22.0,29.64,SSE,161,1.0,18.0,18,0.00,,,0.00,weatherlink.com 1.10,2013-05-23 21:33:00,
2013-05-23 15:48:00,66.3,19.0,29.64,SSE,148,3.0,14.0,16,0.00,,,0.00,weatherlink.com 1.10,2013-05-23 21:48:00,
2013-05-23 16:04:00,65.8,18.0,29.64,East,96,5.0,18.0,16,0.00,,,0.00,weatherlink.com 1.10,2013-05-23 22:04:00,
2013-05-23 16:18:00,64.7,29.0,29.64,ESE,112,7.0,15.0,26,0.00,,,0.00,weatherlink.com 1.10,2013-05-23 22:18:00,
2013-05-23 16:33:00,63.2,29.0,29.64,East,90,17.0,18.0,28,0.00,,,0.00,weatherlink.com 1.10,2013-05-23 22:33:00,
2013-05-23 16:48:00,63.7,30.0,29.62,ESE,107,10.0,18.0,28,0.00,,,0.00,weatherlink.com 1.10,2013-05-23 22:48:00,
2013-05-23 17:04:00,61.7,36.0,29.63,ESE,113,10.0,28.0,38,0.00,,,0.00,weatherlink.com 1.10,2013-05-23 23:04:00,
2013-05-23 17:18:00,59.0,36.0,29.64,ESE,111,8.0,22.0,43,0.00,,,0.00,weatherlink.com 1.10,2013-05-23 23:18:00,
2013-05-23 17:34:00,59.2,34.0,29.64,East,93,5.0,16.0,39,0.00,,,0.00,weatherlink.com 1.10,2013-05-23 23:34:00,
2013-05-23 17:49:00,59.0,35.0,29.63,SE,127,7.0,18.0,41,0.00,,,0.00,weatherlink.com 1.10,2013-05-23 23:49:00,
2013-05-23 18:04:00,57.8,35.0,29.63,East,80,2.0,16.0,43,0.00,,,0.00,weatherlink.com 1.10,2013-05-24 00:04:00,
2013-05-23 18:19:00,57.1,35.0,29.64,East,99,7.0,18.0,44,0.00,,,0.00,weatherlink.com 1.10,2013-05-24 00:19:00,
2013-05-23 18:34:00,55.1,36.0,29.64,East,92,9.0,18.0,49,0.00,,,0.00,weatherlink.com 1.10,2013-05-24 00:34:00,
2013-05-23 18:49:00,53.9,36.0,29.64,SE,131,8.0,16.0,51,0.00,,,0.00,weatherlink.com 1.10,2013-05-24 00:49:00,
2013-05-23 19:04:00,53.0,37.0,29.64,East,80,3.0,14.0,54,0.00,,,0.00,weatherlink.com 1.10,2013-05-24 01:04:00,
2013-05-23 19:19:00,52.3,37.0,29.64,East,101,5.0,16.0,56,0.00,,,0.00,weatherlink.com 1.10,2013-05-24 01:19:00,
2013-05-23 19:34:00,51.3,37.0,29.65,ENE,72,11.0,17.0,58,0.00,,,0.00,weatherlink.com 1.10,2013-05-24 01:34:00,
2013-05-23 19:49:00,49.2,37.0,29.65,ESE,123,12.0,12.0,63,0.00,,,0.00,weatherlink.com 1.10,2013-05-24 01:49:00,
2013-05-23 20:05:00,48.1,37.0,29.64,SSE,168,3.0,10.0,66,0.00,,,0.00,weatherlink.com 1.10,2013-05-24 02:05:00,
2013-05-23 20:19:00,47.6,37.0,29.64,ESE,123,2.0,15.0,67,0.00,,,0.00,weatherlink.com 1.10,2013-05-24 02:19:00,
2013-05-23 20:34:00,46.6,37.0,29.65,South,187,5.0,10.0,70,0.00,,,0.00,weatherlink.com 1.10,2013-05-24 02:34:00,
2013-05-23 20:49:00,45.7,38.0,29.66,SE,136,3.0,9.0,74,0.00,,,0.00,weatherlink.com 1.10,2013-05-24 02:49:00,
2013-05-23 21:04:00,45.0,38.0,29.67,WSW,242,0.0,9.0,76,0.00,,,0.00,weatherlink.com 1.10,2013-05-24 03:04:00,
2013-05-23 21:19:00,44.5,38.0,29.67,SSE,161,1.0,10.0,77,0.00,,,0.00,weatherlink.com 1.10,2013-05-24 03:19:00,
2013-05-23 21:34:00,45.1,38.0,29.67,SSE,159,1.0,9.0,75,0.00,,,0.00,weatherlink.com 1.10,2013-05-24 03:34:00,
2013-05-23 21:50:00,45.4,38.0,29.68,SSE,160,1.0,10.0,75,0.00,,,0.00,weatherlink.com 1.10,2013-05-24 03:50:00,
2013-05-23 22:04:00,44.6,38.0,29.69,SSE,156,0.0,5.0,78,0.00,,,0.00,weatherlink.com 1.10,2013-05-24 04:04:00,
2013-05-23 22:19:00,43.2,38.0,29.70,South,181,0.0,6.0,81,0.00,,,0.00,weatherlink.com 1.10,2013-05-24 04:19:00,
2013-05-23 22:34:00,42.4,38.0,29.70,South,184,0.0,9.0,84,0.00,,,0.00,weatherlink.com 1.10,2013-05-24 04:34:00,
2013-05-23 22:49:00,42.3,38.0,29.70,SE,144,0.0,5.0,85,0.00,,,0.00,weatherlink.com 1.10,2013-05-24 04:49:00,
2013-05-23 23:05:00,42.0,38.0,29.71,SE,124,0.0,0.0,85,0.00,,,0.00,weatherlink.com 1.10,2013-05-24 05:05:00,
2013-05-23 23:20:00,41.1,37.0,29.70,WSW,245,0.0,3.0,85,0.00,,,0.00,weatherlink.com 1.10,2013-05-24 05:20:00,
2013-05-23 23:35:00,41.3,37.0,29.70,SW,221,0.0,0.0,86,0.00,,,0.00,weatherlink.com 1.10,2013-05-24 05:35:00,
2013-05-23 23:50:00,41.0,37.0,29.70,SW,221,0.0,0.0,87,0.00,,,0.00,weatherlink.com 1.10,2013-05-24 05:50:00,